Pittsfield, MA

3:52 AM EST on February 13, 2016 (GMT -0500)
Pittsfield Municipal

Weather History for KPSF - March, 2014

Change the Weather History Date:

Friday, March 7, 2014

  Actual Average Record
Temperature  
Mean Temperature 20 °F 29 °F  
Max Temperature 40 °F 39 °F 56 °F (1935)
Min Temperature -1 °F 19 °F -7 °F (2003)
Degree Days  
Heating Degree Days 45 36  
Month to date heating degree days 351 259  
Since 1 July heating degree days 5903 5639  
Cooling Degree Days 0 0  
Month to date cooling degree days 0 0  
Year to date cooling degree days 0 0  
Moisture  
Dew Point 9 °F    
Average Humidity 56    
Maximum Humidity 79    
Minimum Humidity 32    
Precipitation  
Precipitation 0.00 in 0.08 in 1.14 in (1967)
Month to date precipitation T 0.58  
Year to date precipitation 6.38 6.18  
Sea Level Pressure  
Sea Level Pressure 30.19 in    
Wind  
Wind Speed 2 mph (WSW)    
Max Wind Speed 10 mph    
Max Gust Speed 17 mph    
Visibility 10 miles    
Events      
T = Trace of Precipitation, MM = Missing Value Source: NWS Daily Summary

Daily Weather History Graph

Daily Weather History Graph

Search for Another Location

Airport or City:

Trip Planner

Search our weather history database for the weather conditions in past years. The results will help you decide how hot, cold, wet, or windy it might be!

Date:

Astronomy

Mar. 07, 2014 Rise Set
Actual Time 6:18 AM EST 5:50 PM EST
Civil Twilight 5:50 AM EST 6:18 PM EST
Nautical Twilight 5:18 AM EST 6:50 PM EST
Astronomical Twilight 4:45 AM EST 7:23 PM EST
Moon 10:02 AM EST (3/7) No Moon Set
Length of Visible Light 12h 27m
Length of Day
11h 31m
Waxing Crescent, 42% of the Moon is Illuminated
Mar 7
Waxing Crescent
Mar 8
First Quarter
Mar 16
Full
Mar 23
Last Quarter
Mar 30
New

Hourly Weather History & Observations

Time (EST) Temp. Windchill Dew Point Humidity Pressure Visibility Wind Dir Wind Speed Gust Speed Precip Events Conditions
12:54 AM 6.1 °F - -4.0 °F 63% 30.47 in 10.0 mi Calm Calm - N/A   Clear
1:54 AM 3.9 °F -3.4 °F -5.1 °F 66% 30.45 in 10.0 mi North 3.5 mph - N/A   Clear
2:54 AM 1.9 °F - -5.1 °F 72% 30.41 in 10.0 mi Calm Calm - N/A   Clear
3:54 AM 1.9 °F - -5.1 °F 72% 30.40 in 10.0 mi Calm Calm - N/A   Clear
4:54 AM 1.0 °F - -5.1 °F 75% 30.39 in 10.0 mi Calm Calm - N/A   Clear
5:54 AM -0.9 °F - -6.0 °F 79% 30.38 in 10.0 mi Calm Calm - N/A   Clear
6:54 AM -0.9 °F - -6.0 °F 79% 30.40 in 9.0 mi Calm Calm - N/A   Mostly Cloudy
7:54 AM 6.1 °F -0.9 °F -2.0 °F 69% 30.38 in 5.0 mi Variable 3.5 mph - N/A   Haze
8:54 AM 14.0 °F 8.2 °F 3.9 °F 64% 30.35 in 7.0 mi North 3.5 mph - N/A   Overcast
9:39 AM 21.0 °F 13.4 °F 12.9 °F 71% 30.26 in 10.0 mi Variable 5.8 mph - N/A   Mostly Cloudy
9:54 AM 21.9 °F 17.2 °F 14.0 °F 72% 30.32 in 10.0 mi SSW 3.5 mph - N/A   Mostly Cloudy
10:35 AM 23.0 °F 17.0 °F 15.1 °F 72% 30.22 in 10.0 mi West 4.6 mph - N/A   Scattered Clouds
10:54 AM 25.0 °F 16.3 °F 15.1 °F 66% 30.30 in 10.0 mi SSE 8.1 mph - N/A   Clear
11:54 AM 28.0 °F 22.8 °F 15.1 °F 58% 30.26 in 10.0 mi SSE 4.6 mph - N/A   Clear
12:54 PM 32.0 °F - 15.1 °F 50% 30.21 in 10.0 mi Calm Calm - N/A   Clear
1:54 PM 35.1 °F - 14.0 °F 42% 30.14 in 10.0 mi Calm Calm - N/A   Clear
2:54 PM 37.9 °F 35.5 °F 10.9 °F 33% 30.11 in 10.0 mi West 3.5 mph - N/A   Clear
3:54 PM 37.9 °F 32.7 °F 10.9 °F 33% 30.09 in 10.0 mi SSE 6.9 mph - N/A   Clear
4:54 PM 37.0 °F 33.3 °F 12.0 °F 36% 30.08 in 10.0 mi Variable 4.6 mph - N/A   Clear
5:54 PM 34.0 °F - 10.9 °F 38% 30.08 in 10.0 mi Calm Calm - N/A   Clear
6:54 PM 30.0 °F - 12.9 °F 49% 30.08 in 10.0 mi Calm Calm - N/A   Clear
7:54 PM 25.0 °F - 15.1 °F 66% 30.05 in 10.0 mi Calm Calm - N/A   Scattered Clouds
8:01 PM 27.0 °F 23.0 °F 14.0 °F 58% 29.97 in 10.0 mi NNW 3.5 mph - N/A   Mostly Cloudy
8:26 PM 28.0 °F - 16.0 °F 61% 29.96 in 10.0 mi Calm Calm - N/A   Overcast
8:54 PM 28.0 °F - 17.1 °F 63% 30.03 in 10.0 mi Calm Calm - N/A   Overcast
9:35 PM 30.0 °F - 16.0 °F 56% 29.96 in 10.0 mi Calm Calm - N/A   Overcast
9:54 PM 28.0 °F - 17.1 °F 63% 30.00 in 10.0 mi Calm Calm - N/A   Overcast
10:54 PM 28.0 °F - 19.0 °F 69% 29.97 in 10.0 mi Calm Calm - N/A   Overcast
11:38 PM 27.0 °F - 18.0 °F 69% 29.90 in 10.0 mi Calm Calm - N/A   Overcast
11:54 PM 28.0 °F - 18.0 °F 66% 29.94 in 10.0 mi Calm Calm - N/A   Overcast